CAPE
201 223 52 34 39 90 30 18 21 6 3 8 11 22 24 27 32 41 90 143 167 165 160 180 102 92 58 16 65 6 1 0
292 291 84 13 15 7 46 18 23 17 12 10 12 10 12 59 15 19 62 88 132 157 166 217 191 113 72 145 59 93 23 7
355 370 182 15 12 6 24 19 28 17 5 10 8 15 9 35 26 12 19 70 64 77 97 131 175 112 197 226 240 137 124 88
415 409 328 80 2 5 17 19 11 10 23 19 21 22 34 53 53 39 15 52 63 57 81 128 183 202 211 228 281 243 239 135
410 446 358 232 9 2 13 19 17 11 24 10 5 3 5 14 13 1 5 16 71 59 56 76 177 190 174 354 350 342 216 156
414 477 379 283 48 1 8 6 25 10 19 21 4 6 4 16 5 11 3 2 30 71 45 42 41 95 109 259 264 258 242 201
220 459 435 327 114 4 4 9 16 18 6 34 29 97 26 14 10 4 4 1 7 26 15 32 23 43 24 143 247 214 294 283
84 437 473 383 215 35 2 4 22 11 20 29 42 57 59 14 29 10 7 0 2 1 21 21 2 0 35 35 144 219 108 56
4 259 509 426 326 99 4 1 17 35 13 27 21 19 18 36 16 9 44 12 8 1 0 0 1 1 59 75 65 165 80 182
19 107 406 474 391 245 55 7 14 29 53 109 47 104 85 39 37 58 23 20 18 12 4 0 0 0 25 147 29 53 80 97
0 124 290 419 464 358 174 20 16 28 45 75 104 117 163 216 181 163 80 59 30 3 12 4 4 16 58 158 128 90 54 55
0 140 268 425 447 439 283 91 25 33 97 52 78 150 181 341 339 340 271 191 82 74 17 23 39 68 107 119 93 129 130 134
0 33 172 405 431 431 401 195 99 62 192 225 243 187 101 220 350 473 423 324 213 101 59 28 33 42 70 109 92 30 104 137
41 21 126 347 413 405 386 373 261 315 49 103 350 355 239 201 256 329 330 442 306 79 72 63 39 43 52 63 65 102 143 152
4 24 29 220 427 417 406 692 724 485 124 74 119 391 344 272 192 167 221 254 280 250 151 115 70 58 58 66 71 106 145 134
0 13 28 46 265 508 486 499 697 572 372 301 325 454 316 188 214 171 147 180 196 219 233 232 242 111 29 51 54 47 35 54
0 0 5 17 20 297 470 555 840 748 717 689 456 379 340 350 326 281 189 151 122 146 119 139 162 54 1 0 0 0 0 2
0 0 1 3 10 18 73 432 498 725 739 698 630 651 601 572 348 203 206 192 172 129 101 105 113 150 0 0 0 0 1 1
0 0 0 0 0 0 5 25 293 683 710 627 593 644 634 511 513 418 349 291 235 232 225 228 204 153 0 0 0 0 6 3
CIN
-87 -111 -214 -258 -227 -186 -290 0 -1 0 0 -8 0 0 -1 -10 -6 -14 -7 0 -16 -21 -23 -19 -35 -27 -8 -33 -18 -68 -24 0
-75 -128 -210 -306 -303 -1 -260 0 0 0 0 0 0 0 0 0 -8 -40 -28 -12 -13 -21 -17 -8 -13 0 -3 0 -19 -8 -34 -43
-59 -126 -185 -260 -296 0 0 0 0 0 0 0 0 0 -1 0 -9 -50 -73 -72 -50 -34 -24 -13 -8 0 0 0 0 -7 -2 -2
-44 -103 -144 -230 -144 0 0 0 0 0 0 0 -2 -1 -1 -3 0 -4 -61 -76 -62 -19 -1 -8 -5 -2 -5 -2 -1 -2 -3 -9
-29 -89 -123 -148 -263 -202 0 0 0 0 0 -6 0 0 -1 -1 -2 -2 -48 -82 -51 -21 -47 -27 -22 -25 -27 0 0 -3 -21 -31
-18 -70 -98 -127 -203 -264 -318 -1 0 0 0 -1 0 0 -1 0 -2 -15 -42 -30 -61 -30 -19 -59 -100 -61 -76 -15 -2 -15 -14 -16
-15 -45 -92 -115 -187 -341 -352 0 0 0 -2 0 0 -71 0 0 0 0 -16 0 -49 -24 -48 -64 -100 -109 -100 -29 -10 -21 -8 -8
-20 -36 -80 -120 -166 -275 -397 -401 -318 0 0 0 -125 -115 -98 0 -5 0 0 0 -3 -14 -26 -56 -43 -3 -58 -47 -15 -17 -46 -64
-7 -28 -64 -109 -166 -248 -352 -98 -322 -303 0 -316 0 -34 -3 -150 0 -2 -1 0 0 0 -6 -6 -93 -95 -17 -21 -18 -9 -58 -13
-20 -24 -62 -103 -158 -228 -304 -317 -303 -290 -323 -271 -351 -237 -206 -153 -213 -156 -16 0 -2 -2 -45 -71 0 -88 -22 0 -37 -32 -31 -20
0 -27 -49 -96 -135 -190 -262 -322 -293 -283 -276 -277 -274 -275 -221 -162 -152 -128 -142 -125 -122 -8 0 -33 -31 -45 -9 0 0 -10 -63 -49
0 -30 -44 -71 -114 -168 -224 -287 -291 -285 -242 -266 -246 -209 -188 -121 -122 -101 -85 -68 -85 -67 0 0 0 -1 0 0 0 0 -2 -5
0 -32 -43 -58 -116 -145 -198 -252 -254 -260 -232 -222 -202 -190 -223 -167 -128 -93 -75 -66 -49 -44 -53 -57 0 0 -15 -1 0 0 0 -1
-1 -27 -45 -70 -105 -132 -180 -222 -238 -203 -294 -284 -202 -193 -204 -220 -180 -116 -87 -50 -49 -64 -48 -56 0 0 -12 -8 -6 0 0 0
-7 0 -19 -43 -79 -117 -150 -156 -170 -196 -276 -323 -297 -218 -232 -230 -211 -176 -123 -95 -63 -55 -56 -51 -55 -33 -20 -15 -13 -6 -2 -1
0 -14 -7 -13 -47 -71 -108 -136 -153 -191 -210 -245 -286 -240 -226 -221 -185 -189 -180 -139 -110 -66 -41 -32 -19 -34 -34 -6 -3 -17 -38 -12
0 0 -21 -12 -25 -31 -55 -95 -108 -158 -187 -226 -241 -232 -225 -208 -188 -178 -171 -171 -161 -119 -109 -72 -46 -60 0 0 0 0 0 -49
0 0 -41 -89 -53 -44 -45 -59 -99 -125 -181 -211 -212 -204 -208 -208 -219 -220 -210 -201 -172 -157 -135 -104 -90 -57 0 0 0 0 -1 -19
0 0 0 0 0 0 -115 -78 -65 -118 -164 -203 -222 -218 -224 -212 -194 -215 -208 -193 -206 -182 -147 -104 -70 -67 -2 0 0 0 -7 -3
Wind_Speed
13 10 8 9 8 10 10 8 13 10 7 7 8 8 8 8 6 5 12 11 15 11 10 8 7 8 8 9 10 9 8 8
14 12 10 10 10 10 11 11 11 10 8 9 8 8 9 9 6 8 7 10 12 10 10 10 10 10 10 8 8 10 8 7
15 15 13 12 12 12 13 11 14 11 9 9 8 10 9 9 7 8 10 6 11 9 9 10 12 9 9 9 9 8 7 7
17 17 16 14 14 15 13 13 13 14 14 9 7 8 8 8 9 7 6 7 8 13 11 10 9 7 7 10 9 11 7 6
17 18 17 16 15 14 16 15 16 12 13 10 13 10 7 9 10 8 6 5 6 10 12 10 10 8 7 9 9 10 8 7
18 19 18 17 16 15 15 15 17 16 13 13 12 12 11 8 8 14 10 7 6 6 10 10 9 7 4 8 10 10 8 5
17 18 18 17 16 16 15 18 17 17 17 19 15 18 16 11 12 11 12 8 7 9 12 11 8 6 6 8 9 12 9 8
16 19 20 19 19 18 17 19 20 18 19 18 17 17 17 20 18 13 14 13 11 13 13 13 11 11 12 12 10 10 9 5
15 19 19 20 21 21 19 20 20 22 20 18 16 17 13 13 15 13 14 15 16 17 14 14 15 14 15 12 10 11 9 11
14 17 19 20 21 22 21 20 20 20 21 20 20 18 18 16 18 17 15 17 16 20 20 18 16 16 17 16 10 10 11 12
6 14 18 18 20 19 20 20 20 19 20 19 17 19 20 16 16 18 17 17 19 19 21 21 19 18 18 18 15 14 12 10
1 9 14 17 18 20 20 20 21 20 18 18 18 17 18 17 17 18 18 18 20 20 22 22 22 22 21 19 18 16 17 16
4 5 11 15 18 19 20 20 21 20 17 18 18 17 18 18 18 18 18 18 18 18 18 20 21 22 21 21 20 18 20 20
7 5 7 12 16 18 19 20 21 18 18 19 18 19 19 20 19 18 18 18 19 18 18 19 20 20 21 21 21 20 19 18
15 11 6 10 13 16 19 18 19 19 19 20 20 20 20 19 18 19 19 19 19 19 19 20 19 19 20 19 19 19 18 18
15 15 10 7 12 14 17 18 18 19 20 20 21 19 19 19 18 19 19 19 19 20 20 20 20 20 16 20 20 19 17 17
16 15 18 11 9 12 14 17 17 18 20 21 19 19 20 20 18 18 18 19 19 19 20 20 19 15 17 16 14 12 11 12
15 17 18 16 12 9 12 16 16 17 18 19 19 19 20 20 19 20 20 20 18 20 19 19 20 19 16 18 18 14 14 15
16 15 16 16 14 15 13 13 15 17 18 18 19 19 20 19 19 20 19 17 19 18 18 18 17 15 13 15 17 16 17 9
Wind_Direction
196 200 187 174 165 163 155 165 162 148 135 140 145 143 142 151 162 175 182 178 178 171 163 142 159 167 178 178 177 179 172 190
180 189 181 178 165 181 167 165 173 162 155 155 155 160 154 161 163 170 183 191 182 180 167 162 177 190 180 175 172 175 177 182
184 184 184 190 177 187 167 179 172 171 166 170 169 171 174 168 166 177 183 190 178 174 158 170 187 182 181 176 183 169 186 186
189 190 189 188 189 179 189 174 177 179 181 163 173 158 174 174 181 170 183 191 211 178 187 168 181 182 179 183 179 190 190 199
193 194 192 191 187 182 181 182 175 181 179 165 164 179 168 194 187 180 167 198 215 199 173 188 183 184 182 185 195 197 201 188
194 193 194 190 177 186 186 178 186 183 188 170 170 175 184 163 172 186 178 175 211 229 171 185 185 191 195 190 205 205 216 194
193 188 193 187 180 179 191 176 195 186 195 194 198 184 180 166 169 173 193 173 180 205 191 194 187 177 224 225 211 211 225 231
194 187 193 189 185 182 188 189 193 180 192 199 201 204 189 183 184 178 174 190 193 201 199 195 194 196 221 228 215 219 227 227
204 195 194 193 188 186 190 196 198 183 191 197 199 206 207 203 191 192 188 194 197 196 199 196 198 196 225 225 217 218 215 227
199 204 192 196 192 191 190 198 201 195 192 193 199 203 202 198 201 197 197 201 199 195 197 201 204 201 214 216 220 219 219 228
244 203 195 197 195 194 194 203 202 199 197 201 199 201 204 200 203 204 204 199 201 198 201 202 205 207 219 221 222 224 221 223
235 206 201 199 200 197 197 203 204 202 200 202 207 203 206 206 204 204 202 200 200 198 200 206 208 211 219 226 228 225 225 228
98 211 218 200 204 201 199 203 210 205 199 201 205 207 207 209 214 209 202 206 202 209 203 207 211 214 219 221 220 220 223 232
354 172 218 210 207 208 207 204 212 209 203 203 207 207 207 209 210 211 212 207 207 205 212 208 210 213 216 220 222 226 230 235
309 310 211 216 211 212 212 209 209 210 206 207 212 211 211 210 206 208 211 211 211 211 212 215 219 219 223 226 230 233 235 236
313 317 302 230 209 213 216 217 209 210 213 211 215 213 213 213 213 210 209 212 211 214 214 216 219 221 223 225 229 234 236 240
325 318 314 322 270 213 218 221 215 205 213 217 215 213 214 215 212 212 212 213 214 213 216 217 219 222 217 208 218 223 223 229
325 316 312 311 321 297 249 223 220 213 214 219 217 214 214 214 212 211 213 213 211 217 219 218 221 222 202 191 194 215 221 222
332 332 319 303 303 302 296 265 227 213 215 218 216 213 215 213 212 213 211 211 212 212 216 219 222 225 188 197 193 217 229 226